Time,TemperatureF,DewpointF,PressureIn,WindDirection,WindDirectionDegrees,WindSpeedMPH,WindSpeedGustMPH,Humidity,HourlyPrecipIn,Conditions,Clouds,dailyrainin,SoftwareType,DateUTC
2013-03-31 00:00:00,41.1,18.0,30.07,NW,315,5.8,8.9,39,0.00,,,0.00,Rainwise IP-100,2013-03-31 04:00:00,
2013-03-31 00:01:00,41.1,18.0,30.07,WNW,292,5.1,8.9,39,0.00,,,0.00,Rainwise IP-100,2013-03-31 04:01:00,
2013-03-31 00:06:00,41.2,18.0,30.07,WNW,292,7.0,11.9,39,0.00,,,0.00,Rainwise IP-100,2013-03-31 04:06:00,
2013-03-31 00:11:00,41.3,18.0,30.07,WNW,292,7.0,11.0,38,0.00,,,0.00,Rainwise IP-100,2013-03-31 04:11:00,
2013-03-31 00:16:00,41.2,18.0,30.07,NW,315,5.8,10.7,38,0.00,,,0.00,Rainwise IP-100,2013-03-31 04:16:00,
2013-03-31 00:21:00,41.1,18.0,30.08,NW,315,6.8,9.1,38,0.00,,,0.00,Rainwise IP-100,2013-03-31 04:21:00,
2013-03-31 00:26:00,40.9,18.0,30.08,WNW,292,4.4,9.3,38,0.00,,,0.00,Rainwise IP-100,2013-03-31 04:26:00,
2013-03-31 00:31:00,40.7,18.0,30.07,NW,315,5.8,8.2,38,0.00,,,0.00,Rainwise IP-100,2013-03-31 04:31:00,
2013-03-31 00:33:00,40.6,18.0,30.07,NW,315,7.7,8.2,38,0.00,,,0.00,Rainwise IP-100,2013-03-31 04:33:00,
2013-03-31 00:38:00,40.3,18.0,30.08,NW,315,6.8,7.7,39,0.00,,,0.00,Rainwise IP-100,2013-03-31 04:38:00,
2013-03-31 00:43:00,40.2,18.0,30.08,NW,315,4.7,8.6,39,0.00,,,0.00,Rainwise IP-100,2013-03-31 04:43:00,
2013-03-31 00:48:00,40.0,18.0,30.08,WNW,292,5.8,7.5,39,0.00,,,0.00,Rainwise IP-100,2013-03-31 04:48:00,
2013-03-31 00:53:00,39.7,18.0,30.08,NW,315,4.2,7.0,40,0.00,,,0.00,Rainwise IP-100,2013-03-31 04:53:00,
2013-03-31 00:58:00,39.4,18.0,30.08,NW,315,4.0,7.5,40,0.00,,,0.00,Rainwise IP-100,2013-03-31 04:58:00,
2013-03-31 01:03:00,39.3,18.0,30.08,NW,315,4.7,7.5,41,0.00,,,0.00,Rainwise IP-100,2013-03-31 05:03:00,
2013-03-31 01:08:00,39.2,18.0,30.07,WNW,292,5.6,7.5,40,0.00,,,0.00,Rainwise IP-100,2013-03-31 05:08:00,
2013-03-31 01:13:00,39.1,16.0,30.08,WNW,292,6.5,8.6,39,0.00,,,0.00,Rainwise IP-100,2013-03-31 05:13:00,
2013-03-31 01:18:00,39.1,16.0,30.08,WNW,292,5.4,8.2,38,0.00,,,0.00,Rainwise IP-100,2013-03-31 05:18:00,
2013-03-31 01:23:00,39.1,16.0,30.08,NW,315,5.4,9.1,38,0.00,,,0.00,Rainwise IP-100,2013-03-31 05:23:00,
2013-03-31 01:28:00,39.1,16.0,30.08,NW,315,7.0,8.6,39,0.00,,,0.00,Rainwise IP-100,2013-03-31 05:28:00,
2013-03-31 01:33:00,39.2,16.0,30.08,WNW,292,6.1,8.6,39,0.00,,,0.00,Rainwise IP-100,2013-03-31 05:33:00,
2013-03-31 01:38:00,39.3,16.0,30.08,WNW,292,6.3,8.4,38,0.00,,,0.00,Rainwise IP-100,2013-03-31 05:38:00,
2013-03-31 01:43:00,39.5,18.0,30.08,NW,315,7.5,10.0,38,0.00,,,0.00,Rainwise IP-100,2013-03-31 05:43:00,
2013-03-31 01:48:00,39.6,18.0,30.07,NNW,337,8.6,11.9,38,0.00,,,0.00,Rainwise IP-100,2013-03-31 05:48:00,
2013-03-31 01:53:00,39.7,18.0,30.08,NW,315,5.8,10.3,39,0.00,,,0.00,Rainwise IP-100,2013-03-31 05:53:00,
2013-03-31 01:58:00,39.6,18.0,30.08,NNW,337,9.6,9.8,40,0.00,,,0.00,Rainwise IP-100,2013-03-31 05:58:00,
2013-03-31 02:03:00,39.3,18.0,30.08,NW,315,9.1,10.5,41,0.00,,,0.00,Rainwise IP-100,2013-03-31 06:03:00,
2013-03-31 02:08:00,39.2,18.0,30.08,NNW,337,5.6,10.0,42,0.00,,,0.00,Rainwise IP-100,2013-03-31 06:08:00,
2013-03-31 02:13:00,39.2,18.0,30.08,NNW,337,7.0,10.0,41,0.00,,,0.00,Rainwise IP-100,2013-03-31 06:13:00,
2013-03-31 02:18:00,39.2,18.0,30.08,NNW,337,8.2,10.7,40,0.00,,,0.00,Rainwise IP-100,2013-03-31 06:18:00,
2013-03-31 02:23:00,39.2,18.0,30.08,NW,315,7.0,10.5,40,0.00,,,0.00,Rainwise IP-100,2013-03-31 06:23:00,
2013-03-31 02:28:00,39.2,18.0,30.08,NW,315,5.6,10.7,40,0.00,,,0.00,Rainwise IP-100,2013-03-31 06:28:00,
2013-03-31 02:33:00,39.2,18.0,30.08,WNW,292,11.9,11.9,40,0.00,,,0.00,Rainwise IP-100,2013-03-31 06:33:00,
2013-03-31 02:39:00,39.1,18.0,30.08,NW,315,10.3,11.9,40,0.00,,,0.00,Rainwise IP-100,2013-03-31 06:39:00,
2013-03-31 02:44:00,39.1,18.0,30.08,North,0,7.7,11.2,40,0.00,,,0.00,Rainwise IP-100,2013-03-31 06:44:00,
2013-03-31 02:49:00,39.1,16.0,30.08,WNW,292,6.8,11.2,39,0.00,,,0.00,Rainwise IP-100,2013-03-31 06:49:00,
2013-03-31 02:54:00,38.9,16.0,30.08,NW,315,6.3,10.0,39,0.00,,,0.00,Rainwise IP-100,2013-03-31 06:54:00,
2013-03-31 02:59:00,38.7,16.0,30.08,NW,315,7.0,11.2,39,0.00,,,0.00,Rainwise IP-100,2013-03-31 06:59:00,
2013-03-31 03:04:00,38.7,16.0,30.08,WNW,292,5.4,8.9,39,0.00,,,0.00,Rainwise IP-100,2013-03-31 07:04:00,
2013-03-31 03:09:00,38.6,16.0,30.08,WNW,292,5.1,8.9,39,0.00,,,0.00,Rainwise IP-100,2013-03-31 07:09:00,
2013-03-31 03:14:00,38.4,16.0,30.07,NW,315,9.8,10.3,40,0.00,,,0.00,Rainwise IP-100,2013-03-31 07:14:00,
2013-03-31 03:19:00,38.4,16.0,30.08,WNW,292,8.2,10.3,39,0.00,,,0.00,Rainwise IP-100,2013-03-31 07:19:00,
2013-03-31 03:24:00,38.4,16.0,30.07,NW,315,8.6,9.8,39,0.00,,,0.00,Rainwise IP-100,2013-03-31 07:24:00,
2013-03-31 03:29:00,38.3,16.0,30.07,NNW,337,6.5,9.6,39,0.00,,,0.00,Rainwise IP-100,2013-03-31 07:29:00,
2013-03-31 03:34:00,38.3,16.0,30.08,NW,315,8.9,9.8,40,0.00,,,0.00,Rainwise IP-100,2013-03-31 07:34:00,
2013-03-31 03:39:00,38.3,16.0,30.08,NW,315,5.4,9.8,40,0.00,,,0.00,Rainwise IP-100,2013-03-31 07:39:00,
2013-03-31 03:44:00,38.2,16.0,30.08,NW,315,8.2,9.1,40,0.00,,,0.00,Rainwise IP-100,2013-03-31 07:44:00,
2013-03-31 03:49:00,38.2,16.0,30.08,NW,315,6.8,9.6,41,0.00,,,0.00,Rainwise IP-100,2013-03-31 07:49:00,
2013-03-31 03:54:00,38.0,16.0,30.08,WNW,292,5.1,6.8,41,0.00,,,0.00,Rainwise IP-100,2013-03-31 07:54:00,
2013-03-31 03:59:00,37.7,16.0,30.08,WNW,292,9.1,9.1,41,0.00,,,0.00,Rainwise IP-100,2013-03-31 07:59:00,
2013-03-31 04:04:00,37.5,16.0,30.08,WNW,292,7.2,9.1,40,0.00,,,0.00,Rainwise IP-100,2013-03-31 08:04:00,
2013-03-31 04:09:00,37.4,16.0,30.08,WNW,292,6.8,8.6,40,0.00,,,0.00,Rainwise IP-100,2013-03-31 08:09:00,
2013-03-31 04:14:00,37.4,16.0,30.08,WNW,292,4.0,7.7,40,0.00,,,0.00,Rainwise IP-100,2013-03-31 08:14:00,
2013-03-31 04:19:00,37.3,16.0,30.08,NNW,337,4.0,6.3,40,0.00,,,0.00,Rainwise IP-100,2013-03-31 08:19:00,
2013-03-31 04:24:00,37.3,16.0,30.08,NW,315,5.6,8.4,40,0.00,,,0.00,Rainwise IP-100,2013-03-31 08:24:00,
2013-03-31 04:29:00,37.3,16.0,30.08,NW,315,4.7,8.9,40,0.00,,,0.00,Rainwise IP-100,2013-03-31 08:29:00,
2013-03-31 04:34:00,37.1,16.0,30.08,WNW,292,5.8,7.5,41,0.00,,,0.00,Rainwise IP-100,2013-03-31 08:34:00,
2013-03-31 04:39:00,36.8,16.0,30.08,WNW,292,5.8,8.2,41,0.00,,,0.00,Rainwise IP-100,2013-03-31 08:39:00,
2013-03-31 04:44:00,36.6,16.0,30.09,WNW,292,5.4,8.4,41,0.00,,,0.00,Rainwise IP-100,2013-03-31 08:44:00,
2013-03-31 04:49:00,36.6,16.0,30.08,WNW,292,5.4,6.8,41,0.00,,,0.00,Rainwise IP-100,2013-03-31 08:49:00,
2013-03-31 04:54:00,36.5,16.0,30.08,WNW,292,4.4,6.3,41,0.00,,,0.00,Rainwise IP-100,2013-03-31 08:54:00,
2013-03-31 04:59:00,36.5,16.0,30.09,NW,315,3.7,7.5,41,0.00,,,0.00,Rainwise IP-100,2013-03-31 08:59:00,
2013-03-31 05:04:00,36.5,16.0,30.09,WNW,292,5.6,8.4,41,0.00,,,0.00,Rainwise IP-100,2013-03-31 09:04:00,
2013-03-31 05:09:00,36.4,16.0,30.09,West,270,7.2,7.9,41,0.00,,,0.00,Rainwise IP-100,2013-03-31 09:09:00,
2013-03-31 05:14:00,36.4,16.0,30.09,NW,315,6.3,8.4,41,0.00,,,0.00,Rainwise IP-100,2013-03-31 09:14:00,
2013-03-31 05:19:00,36.5,16.0,30.09,NW,315,6.3,7.9,41,0.00,,,0.00,Rainwise IP-100,2013-03-31 09:19:00,
2013-03-31 05:24:00,36.5,16.0,30.09,NW,315,5.8,7.7,41,0.00,,,0.00,Rainwise IP-100,2013-03-31 09:24:00,
2013-03-31 05:29:00,36.5,16.0,30.09,NNW,337,4.4,8.2,41,0.00,,,0.00,Rainwise IP-100,2013-03-31 09:29:00,
2013-03-31 05:34:00,36.5,16.0,30.10,NW,315,6.1,7.5,41,0.00,,,0.00,Rainwise IP-100,2013-03-31 09:34:00,
2013-03-31 05:39:00,36.3,16.0,30.10,NW,315,4.2,7.2,43,0.00,,,0.00,Rainwise IP-100,2013-03-31 09:39:00,
2013-03-31 05:44:00,36.1,16.0,30.10,WNW,292,4.2,5.8,44,0.00,,,0.00,Rainwise IP-100,2013-03-31 09:44:00,
2013-03-31 05:49:00,36.1,16.0,30.10,NW,315,5.1,7.7,42,0.00,,,0.00,Rainwise IP-100,2013-03-31 09:49:00,
2013-03-31 05:54:00,36.0,16.0,30.10,NW,315,4.2,6.3,42,0.00,,,0.00,Rainwise IP-100,2013-03-31 09:54:00,
2013-03-31 05:59:00,36.0,16.0,30.10,NW,315,4.2,7.0,42,0.00,,,0.00,Rainwise IP-100,2013-03-31 09:59:00,
2013-03-31 06:04:00,36.0,16.0,30.10,NW,315,7.0,8.2,41,0.00,,,0.00,Rainwise IP-100,2013-03-31 10:04:00,
2013-03-31 06:09:00,36.2,16.0,30.10,NW,315,4.2,8.6,41,0.00,,,0.00,Rainwise IP-100,2013-03-31 10:09:00,
2013-03-31 06:14:00,36.0,16.0,30.10,NW,315,4.4,6.1,42,0.00,,,0.00,Rainwise IP-100,2013-03-31 10:14:00,
2013-03-31 06:19:00,35.7,16.0,30.10,NW,315,3.0,6.5,44,0.00,,,0.00,Rainwise IP-100,2013-03-31 10:19:00,
2013-03-31 06:24:00,35.5,16.0,30.10,NW,315,3.5,4.9,45,0.00,,,0.00,Rainwise IP-100,2013-03-31 10:24:00,
2013-03-31 06:29:00,35.4,16.0,30.11,NW,315,1.6,4.2,45,0.00,,,0.00,Rainwise IP-100,2013-03-31 10:29:00,
2013-03-31 06:34:00,35.5,16.0,30.11,WNW,292,2.8,4.4,44,0.00,,,0.00,Rainwise IP-100,2013-03-31 10:34:00,
2013-03-31 06:39:00,35.8,16.0,30.11,NW,315,2.6,3.7,43,0.00,,,0.00,Rainwise IP-100,2013-03-31 10:39:00,
2013-03-31 06:44:00,36.3,16.0,30.12,NW,315,3.3,4.0,42,0.00,,,0.00,Rainwise IP-100,2013-03-31 10:44:00,
2013-03-31 06:49:00,36.5,16.0,30.12,NW,315,4.2,4.7,42,0.00,,,0.00,Rainwise IP-100,2013-03-31 10:49:00,
2013-03-31 06:54:00,36.7,16.0,30.12,NW,315,3.3,4.7,43,0.00,,,0.00,Rainwise IP-100,2013-03-31 10:54:00,
2013-03-31 06:59:00,36.9,18.0,30.12,NW,315,3.0,4.0,46,0.00,,,0.00,Rainwise IP-100,2013-03-31 10:59:00,
2013-03-31 07:04:00,37.4,21.0,30.12,NNW,337,2.1,4.7,49,0.00,,,0.00,Rainwise IP-100,2013-03-31 11:04:00,
2013-03-31 07:09:00,37.9,23.0,30.12,NW,315,5.1,5.1,52,0.00,,,0.00,Rainwise IP-100,2013-03-31 11:09:00,
2013-03-31 07:14:00,38.2,23.0,30.12,NW,315,5.1,5.6,53,0.00,,,0.00,Rainwise IP-100,2013-03-31 11:14:00,
2013-03-31 07:19:00,38.3,23.0,30.12,NNW,337,3.0,5.4,52,0.00,,,0.00,Rainwise IP-100,2013-03-31 11:19:00,
2013-03-31 07:24:00,38.4,23.0,30.12,NW,315,3.7,4.9,52,0.00,,,0.00,Rainwise IP-100,2013-03-31 11:24:00,
2013-03-31 07:29:00,38.6,24.0,30.13,NW,315,2.6,5.1,53,0.00,,,0.00,Rainwise IP-100,2013-03-31 11:29:00,
2013-03-31 07:34:00,39.0,24.0,30.12,NNW,337,2.8,4.4,55,0.00,,,0.00,Rainwise IP-100,2013-03-31 11:34:00,
2013-03-31 07:39:00,39.8,26.0,30.13,NNW,337,1.9,4.9,56,0.00,,,0.00,Rainwise IP-100,2013-03-31 11:39:00,
2013-03-31 07:44:00,40.4,26.0,30.13,NNW,337,2.8,4.4,56,0.00,,,0.00,Rainwise IP-100,2013-03-31 11:44:00,
2013-03-31 07:49:00,40.9,28.0,30.14,NNW,337,0.0,4.9,56,0.00,,,0.00,Rainwise IP-100,2013-03-31 11:49:00,
2013-03-31 07:54:00,41.2,28.0,30.13,NNW,337,2.3,5.8,56,0.00,,,0.00,Rainwise IP-100,2013-03-31 11:54:00,
2013-03-31 07:59:00,41.5,28.0,30.13,NNE,22,0.0,4.2,55,0.00,,,0.00,Rainwise IP-100,2013-03-31 11:59:00,
2013-03-31 08:04:00,41.9,28.0,30.14,North,0,0.0,0.0,56,0.00,,,0.00,Rainwise IP-100,2013-03-31 12:04:00,
2013-03-31 08:09:00,42.5,28.0,30.14,NNW,337,2.8,5.1,55,0.00,,,0.00,Rainwise IP-100,2013-03-31 12:09:00,
2013-03-31 08:14:00,42.8,28.0,30.14,North,0,0.0,4.0,53,0.00,,,0.00,Rainwise IP-100,2013-03-31 12:14:00,
2013-03-31 08:19:00,43.1,26.0,30.14,NNW,337,3.0,3.0,51,0.00,,,0.00,Rainwise IP-100,2013-03-31 12:19:00,
2013-03-31 08:24:00,43.4,26.0,30.13,NNW,337,3.5,4.7,49,0.00,,,0.00,Rainwise IP-100,2013-03-31 12:24:00,
2013-03-31 08:29:00,43.5,26.0,30.13,NW,315,0.0,6.1,48,0.00,,,0.00,Rainwise IP-100,2013-03-31 12:29:00,
2013-03-31 08:34:00,43.7,26.0,30.13,North,0,0.0,1.4,49,0.00,,,0.00,Rainwise IP-100,2013-03-31 12:34:00,
2013-03-31 08:39:00,44.3,26.0,30.13,NNE,22,0.0,1.4,49,0.00,,,0.00,Rainwise IP-100,2013-03-31 12:39:00,
2013-03-31 08:44:00,44.9,26.0,30.13,NNE,22,0.0,0.0,47,0.00,,,0.00,Rainwise IP-100,2013-03-31 12:44:00,
2013-03-31 08:49:00,45.5,26.0,30.13,NNE,22,0.0,1.6,46,0.00,,,0.00,Rainwise IP-100,2013-03-31 12:49:00,
2013-03-31 08:54:00,46.1,26.0,30.13,NE,45,0.0,0.0,45,0.00,,,0.00,Rainwise IP-100,2013-03-31 12:54:00,
2013-03-31 08:59:00,46.7,26.0,30.13,NE,45,0.0,1.4,44,0.00,,,0.00,Rainwise IP-100,2013-03-31 12:59:00,
2013-03-31 09:04:00,47.2,26.0,30.14,NE,45,0.0,1.2,43,0.00,,,0.00,Rainwise IP-100,2013-03-31 13:04:00,
2013-03-31 09:09:00,47.7,26.0,30.14,North,0,0.0,2.1,42,0.00,,,0.00,Rainwise IP-100,2013-03-31 13:09:00,
2013-03-31 09:14:00,47.9,26.0,30.14,NNE,22,0.0,2.1,41,0.00,,,0.00,Rainwise IP-100,2013-03-31 13:14:00,
2013-03-31 09:19:00,48.0,26.0,30.14,West,270,0.0,1.6,40,0.00,,,0.00,Rainwise IP-100,2013-03-31 13:19:00,
2013-03-31 09:24:00,46.9,24.0,30.14,NE,45,1.9,3.7,40,0.00,,,0.00,Rainwise IP-100,2013-03-31 13:24:00,
2013-03-31 09:29:00,44.1,23.0,30.13,ENE,67,1.4,4.2,42,0.00,,,0.00,Rainwise IP-100,2013-03-31 13:29:00,
2013-03-31 09:34:00,41.7,23.0,30.13,ENE,67,3.3,4.4,44,0.00,,,0.00,Rainwise IP-100,2013-03-31 13:34:00,
2013-03-31 09:39:00,40.4,23.0,30.13,ENE,67,4.9,4.9,46,0.00,,,0.00,Rainwise IP-100,2013-03-31 13:39:00,
2013-03-31 09:44:00,39.3,23.0,30.13,ENE,67,3.0,4.9,50,0.00,,,0.00,Rainwise IP-100,2013-03-31 13:44:00,
2013-03-31 09:49:00,39.3,23.0,30.14,East,90,2.6,3.7,51,0.00,,,0.00,Rainwise IP-100,2013-03-31 13:49:00,
2013-03-31 09:54:00,39.7,24.0,30.14,East,90,2.1,3.3,50,0.00,,,0.00,Rainwise IP-100,2013-03-31 13:54:00,
2013-03-31 09:59:00,40.2,24.0,30.13,East,90,2.6,3.3,50,0.00,,,0.00,Rainwise IP-100,2013-03-31 13:59:00,
2013-03-31 10:04:00,40.5,24.0,30.13,ESE,112,1.9,3.0,50,0.00,,,0.00,Rainwise IP-100,2013-03-31 14:04:00,
2013-03-31 10:09:00,40.8,24.0,30.13,East,90,2.8,2.8,50,0.00,,,0.00,Rainwise IP-100,2013-03-31 14:09:00,
2013-03-31 10:14:00,41.0,24.0,30.13,ESE,112,2.8,3.5,51,0.00,,,0.00,Rainwise IP-100,2013-03-31 14:14:00,
2013-03-31 10:19:00,40.9,26.0,30.13,ESE,112,3.5,3.7,52,0.00,,,0.00,Rainwise IP-100,2013-03-31 14:19:00,
2013-03-31 10:24:00,40.7,26.0,30.14,SE,135,2.3,4.2,54,0.00,,,0.00,Rainwise IP-100,2013-03-31 14:24:00,
2013-03-31 10:29:00,40.5,24.0,30.13,ESE,112,2.8,5.1,51,0.00,,,0.00,Rainwise IP-100,2013-03-31 14:29:00,
2013-03-31 10:34:00,40.9,23.0,30.13,SE,135,7.0,7.2,48,0.00,,,0.00,Rainwise IP-100,2013-03-31 14:34:00,
2013-03-31 10:39:00,41.6,23.0,30.13,East,90,6.1,9.1,45,0.00,,,0.00,Rainwise IP-100,2013-03-31 14:39:00,
2013-03-31 10:44:00,41.9,21.0,30.13,SE,135,5.4,10.5,42,0.00,,,0.00,Rainwise IP-100,2013-03-31 14:44:00,
2013-03-31 10:49:00,42.4,21.0,30.13,SE,135,6.3,10.0,39,0.00,,,0.00,Rainwise IP-100,2013-03-31 14:49:00,
2013-03-31 10:54:00,42.9,18.0,30.13,SSE,157,11.2,12.8,37,0.00,,,0.00,Rainwise IP-100,2013-03-31 14:54:00,
2013-03-31 10:59:00,42.9,18.0,30.12,SSE,157,7.9,12.6,37,0.00,,,0.00,Rainwise IP-100,2013-03-31 14:59:00,
2013-03-31 11:04:00,42.7,18.0,30.12,SE,135,9.3,10.7,37,0.00,,,0.00,Rainwise IP-100,2013-03-31 15:04:00,
2013-03-31 11:09:00,42.6,18.0,30.12,SE,135,8.6,12.8,37,0.00,,,0.00,Rainwise IP-100,2013-03-31 15:09:00,
2013-03-31 11:14:00,42.3,21.0,30.12,SSE,157,9.8,13.3,39,0.00,,,0.00,Rainwise IP-100,2013-03-31 15:14:00,
2013-03-31 11:19:00,42.1,21.0,30.12,SE,135,7.7,11.4,42,0.00,,,0.00,Rainwise IP-100,2013-03-31 15:19:00,
2013-03-31 11:24:00,41.8,24.0,30.12,SSE,157,7.9,12.6,48,0.00,,,0.00,Rainwise IP-100,2013-03-31 15:24:00,
2013-03-31 11:29:00,41.2,26.0,30.12,SSE,157,6.8,13.5,55,0.00,,,0.00,Rainwise IP-100,2013-03-31 15:29:00,
2013-03-31 11:34:00,40.7,29.0,30.12,SE,135,4.0,12.6,61,0.00,,,0.00,Rainwise IP-100,2013-03-31 15:34:00,
2013-03-31 11:39:00,40.6,31.0,30.12,SE,135,12.1,14.9,64,0.00,,,0.00,Rainwise IP-100,2013-03-31 15:39:00,
2013-03-31 11:44:00,40.6,31.0,30.11,ESE,112,7.2,14.9,65,0.00,,,0.00,Rainwise IP-100,2013-03-31 15:44:00,
2013-03-31 11:49:00,40.8,31.0,30.11,SE,135,12.1,12.8,65,0.00,,,0.00,Rainwise IP-100,2013-03-31 15:49:00,
2013-03-31 11:54:00,41.1,29.0,30.11,SE,135,5.6,12.6,63,0.00,,,0.00,Rainwise IP-100,2013-03-31 15:54:00,
2013-03-31 11:59:00,41.3,29.0,30.11,SE,135,5.4,12.4,61,0.00,,,0.00,Rainwise IP-100,2013-03-31 15:59:00,
2013-03-31 12:04:00,41.3,29.0,30.10,SE,135,6.1,12.1,60,0.00,,,0.00,Rainwise IP-100,2013-03-31 16:04:00,
2013-03-31 12:09:00,41.7,29.0,30.10,SE,135,6.8,11.2,58,0.00,,,0.00,Rainwise IP-100,2013-03-31 16:09:00,
2013-03-31 12:14:00,43.1,28.0,30.10,SSE,157,3.0,10.5,53,0.00,,,0.00,Rainwise IP-100,2013-03-31 16:14:00,
2013-03-31 12:19:00,45.0,26.0,30.10,ESE,112,4.2,9.3,47,0.00,,,0.00,Rainwise IP-100,2013-03-31 16:19:00,
2013-03-31 12:24:00,45.8,26.0,30.10,East,90,2.8,8.9,44,0.00,,,0.00,Rainwise IP-100,2013-03-31 16:24:00,
2013-03-31 12:29:00,46.1,24.0,30.10,SE,135,3.7,6.5,43,0.00,,,0.00,Rainwise IP-100,2013-03-31 16:29:00,
2013-03-31 12:34:00,47.2,23.0,30.10,West,270,3.5,9.3,39,0.00,,,0.00,Rainwise IP-100,2013-03-31 16:34:00,
2013-03-31 12:39:00,48.9,24.0,30.10,North,0,3.5,7.5,37,0.00,,,0.00,Rainwise IP-100,2013-03-31 16:39:00,
2013-03-31 12:44:00,50.2,24.0,30.10,WNW,292,4.9,10.5,36,0.00,,,0.00,Rainwise IP-100,2013-03-31 16:44:00,
2013-03-31 12:49:00,50.9,24.0,30.10,WSW,247,4.4,10.5,33,0.00,,,0.00,Rainwise IP-100,2013-03-31 16:49:00,
2013-03-31 12:54:00,51.3,23.0,30.10,SSW,202,10.0,10.5,31,0.00,,,0.00,Rainwise IP-100,2013-03-31 16:54:00,
2013-03-31 12:59:00,50.9,23.0,30.09,WSW,247,4.7,17.0,31,0.00,,,0.00,Rainwise IP-100,2013-03-31 16:59:00,
2013-03-31 13:04:00,50.7,21.0,30.10,WSW,247,4.7,11.9,31,0.00,,,0.00,Rainwise IP-100,2013-03-31 17:04:00,
2013-03-31 13:09:00,51.0,21.0,30.10,West,270,3.3,10.5,30,0.00,,,0.00,Rainwise IP-100,2013-03-31 17:09:00,
2013-03-31 13:14:00,51.1,21.0,30.10,SSW,202,7.0,11.2,29,0.00,,,0.00,Rainwise IP-100,2013-03-31 17:14:00,
2013-03-31 13:19:00,51.1,21.0,30.10,SSE,157,2.8,11.7,29,0.00,,,0.00,Rainwise IP-100,2013-03-31 17:19:00,
2013-03-31 13:24:00,51.3,21.0,30.09,NNW,337,0.0,10.0,28,0.00,,,0.00,Rainwise IP-100,2013-03-31 17:24:00,
2013-03-31 13:29:00,51.7,21.0,30.09,West,270,7.7,9.8,28,0.00,,,0.00,Rainwise IP-100,2013-03-31 17:29:00,
2013-03-31 13:34:00,51.4,21.0,30.09,SW,225,5.4,13.5,28,0.00,,,0.00,Rainwise IP-100,2013-03-31 17:34:00,
2013-03-31 13:39:00,50.6,21.0,30.09,WNW,292,4.0,11.2,29,0.00,,,0.00,Rainwise IP-100,2013-03-31 17:39:00,
2013-03-31 13:44:00,50.6,21.0,30.09,West,270,6.1,10.3,29,0.00,,,0.00,Rainwise IP-100,2013-03-31 17:44:00,
2013-03-31 13:49:00,50.7,21.0,30.09,SW,225,6.8,12.6,29,0.00,,,0.00,Rainwise IP-100,2013-03-31 17:49:00,
2013-03-31 13:54:00,50.6,21.0,30.09,SW,225,2.1,15.9,29,0.00,,,0.00,Rainwise IP-100,2013-03-31 17:54:00,
2013-03-31 13:59:00,51.0,21.0,30.09,WSW,247,3.3,16.6,29,0.00,,,0.00,Rainwise IP-100,2013-03-31 17:59:00,
2013-03-31 14:04:00,51.6,21.0,30.09,NW,315,1.9,11.4,29,0.00,,,0.00,Rainwise IP-100,2013-03-31 18:04:00,
2013-03-31 14:09:00,51.8,21.0,30.08,SW,225,8.6,12.6,29,0.00,,,0.00,Rainwise IP-100,2013-03-31 18:09:00,
2013-03-31 14:14:00,52.0,21.0,30.08,WNW,292,7.2,14.2,28,0.00,,,0.00,Rainwise IP-100,2013-03-31 18:14:00,
2013-03-31 14:19:00,51.6,21.0,30.09,West,270,7.5,13.5,27,0.00,,,0.00,Rainwise IP-100,2013-03-31 18:19:00,
2013-03-31 14:24:00,51.1,21.0,30.08,WNW,292,8.6,16.6,28,0.00,,,0.00,Rainwise IP-100,2013-03-31 18:24:00,
2013-03-31 14:29:00,50.8,21.0,30.08,WNW,292,5.1,13.8,28,0.00,,,0.00,Rainwise IP-100,2013-03-31 18:29:00,
2013-03-31 14:34:00,51.0,21.0,30.08,SSW,202,6.5,9.8,28,0.00,,,0.00,Rainwise IP-100,2013-03-31 18:34:00,
2013-03-31 14:39:00,51.2,21.0,30.08,West,270,3.3,10.5,28,0.00,,,0.00,Rainwise IP-100,2013-03-31 18:39:00,
2013-03-31 14:44:00,51.3,18.0,30.08,WSW,247,9.6,11.2,27,0.00,,,0.00,Rainwise IP-100,2013-03-31 18:44:00,
2013-03-31 14:49:00,51.3,21.0,30.08,SW,225,1.2,13.1,28,0.00,,,0.00,Rainwise IP-100,2013-03-31 18:49:00,
2013-03-31 14:54:00,51.3,21.0,30.07,South,180,7.7,11.4,28,0.00,,,0.00,Rainwise IP-100,2013-03-31 18:54:00,
2013-03-31 14:59:00,51.1,21.0,30.07,WNW,292,11.4,13.5,28,0.00,,,0.00,Rainwise IP-100,2013-03-31 18:59:00,
2013-03-31 15:04:00,50.9,21.0,30.07,West,270,8.4,13.8,28,0.00,,,0.00,Rainwise IP-100,2013-03-31 19:04:00,
2013-03-31 15:09:00,51.0,21.0,30.07,SSW,202,9.1,10.3,28,0.00,,,0.00,Rainwise IP-100,2013-03-31 19:09:00,
2013-03-31 15:14:00,51.1,21.0,30.07,WSW,247,2.6,11.9,28,0.00,,,0.00,Rainwise IP-100,2013-03-31 19:14:00,
2013-03-31 15:19:00,51.4,21.0,30.07,NNW,337,1.9,10.7,28,0.00,,,0.00,Rainwise IP-100,2013-03-31 19:19:00,
2013-03-31 15:24:00,51.6,21.0,30.07,SSW,202,3.5,8.6,28,0.00,,,0.00,Rainwise IP-100,2013-03-31 19:24:00,
2013-03-31 15:29:00,51.6,21.0,30.07,SSE,157,0.0,8.9,28,0.00,,,0.00,Rainwise IP-100,2013-03-31 19:29:00,
2013-03-31 15:34:00,51.5,21.0,30.07,West,270,4.7,11.0,28,0.00,,,0.00,Rainwise IP-100,2013-03-31 19:34:00,
2013-03-31 15:39:00,51.3,21.0,30.07,SW,225,6.5,9.8,28,0.00,,,0.00,Rainwise IP-100,2013-03-31 19:39:00,
2013-03-31 15:44:00,50.6,21.0,30.07,WSW,247,4.0,12.1,29,0.00,,,0.00,Rainwise IP-100,2013-03-31 19:44:00,
2013-03-31 15:49:00,50.0,18.0,30.07,SSW,202,3.0,12.4,29,0.00,,,0.00,Rainwise IP-100,2013-03-31 19:49:00,
2013-03-31 15:54:00,49.9,18.0,30.07,SW,225,5.8,10.5,29,0.00,,,0.00,Rainwise IP-100,2013-03-31 19:54:00,
2013-03-31 15:59:00,50.0,18.0,30.07,South,180,3.3,11.9,29,0.00,,,0.00,Rainwise IP-100,2013-03-31 19:59:00,
2013-03-31 16:04:00,49.8,18.0,30.07,SW,225,5.6,12.4,29,0.00,,,0.00,Rainwise IP-100,2013-03-31 20:04:00,
2013-03-31 16:09:00,49.5,18.0,30.07,South,180,6.3,9.1,29,0.00,,,0.00,Rainwise IP-100,2013-03-31 20:09:00,
2013-03-31 16:14:00,49.3,21.0,30.06,SW,225,3.5,10.5,30,0.00,,,0.00,Rainwise IP-100,2013-03-31 20:14:00,
2013-03-31 16:19:00,48.9,21.0,30.07,SSW,202,6.3,13.8,30,0.00,,,0.00,Rainwise IP-100,2013-03-31 20:19:00,
2013-03-31 16:24:00,48.8,21.0,30.06,SE,135,3.3,8.6,30,0.00,,,0.00,Rainwise IP-100,2013-03-31 20:24:00,
2013-03-31 16:29:00,48.8,21.0,30.06,SSE,157,3.5,9.8,31,0.00,,,0.00,Rainwise IP-100,2013-03-31 20:29:00,
2013-03-31 16:34:00,48.6,21.0,30.06,SSW,202,4.0,11.9,32,0.00,,,0.00,Rainwise IP-100,2013-03-31 20:34:00,
2013-03-31 16:39:00,48.2,21.0,30.06,South,180,5.6,11.9,33,0.00,,,0.00,Rainwise IP-100,2013-03-31 20:39:00,
2013-03-31 16:44:00,47.5,24.0,30.06,SE,135,6.8,7.9,38,0.00,,,0.00,Rainwise IP-100,2013-03-31 20:44:00,
2013-03-31 16:49:00,46.5,24.0,30.06,SE,135,5.8,9.3,42,0.00,,,0.00,Rainwise IP-100,2013-03-31 20:49:00,
2013-03-31 16:54:00,45.5,26.0,30.06,SSE,157,6.5,10.7,46,0.00,,,0.00,Rainwise IP-100,2013-03-31 20:54:00,
2013-03-31 17:00:00,44.2,28.0,30.05,SE,135,4.7,11.0,52,0.00,,,0.00,Rainwise IP-100,2013-03-31 21:00:00,
2013-03-31 17:05:00,43.4,29.0,30.06,SE,135,4.4,9.8,56,0.00,,,0.00,Rainwise IP-100,2013-03-31 21:05:00,
2013-03-31 17:10:00,43.7,29.0,30.05,ESE,112,4.0,8.2,55,0.00,,,0.00,Rainwise IP-100,2013-03-31 21:10:00,
2013-03-31 17:15:00,43.5,31.0,30.05,SE,135,6.1,9.8,57,0.00,,,0.00,Rainwise IP-100,2013-03-31 21:15:00,
2013-03-31 17:20:00,42.7,31.0,30.05,SE,135,5.1,10.7,61,0.00,,,0.00,Rainwise IP-100,2013-03-31 21:20:00,
2013-03-31 17:25:00,41.9,32.0,30.05,ESE,112,8.4,9.1,66,0.00,,,0.00,Rainwise IP-100,2013-03-31 21:25:00,
2013-03-31 17:30:00,41.4,32.0,30.05,SE,135,4.0,10.5,69,0.00,,,0.00,Rainwise IP-100,2013-03-31 21:30:00,
2013-03-31 17:35:00,41.5,32.0,30.05,South,180,3.7,9.8,68,0.00,,,0.00,Rainwise IP-100,2013-03-31 21:35:00,
2013-03-31 17:40:00,42.4,29.0,30.05,SSW,202,1.6,10.7,60,0.00,,,0.00,Rainwise IP-100,2013-03-31 21:40:00,
2013-03-31 17:45:00,43.3,28.0,30.05,SSE,157,2.8,12.8,52,0.00,,,0.00,Rainwise IP-100,2013-03-31 21:45:00,
2013-03-31 17:50:00,43.7,26.0,30.05,SSE,157,6.3,12.4,49,0.00,,,0.00,Rainwise IP-100,2013-03-31 21:50:00,
2013-03-31 17:55:00,43.6,28.0,30.04,South,180,8.9,17.7,50,0.00,,,0.00,Rainwise IP-100,2013-03-31 21:55:00,
2013-03-31 18:00:00,43.5,28.0,30.05,South,180,5.4,13.5,51,0.00,,,0.00,Rainwise IP-100,2013-03-31 22:00:00,
2013-03-31 18:05:00,43.3,28.0,30.04,SSE,157,5.1,11.0,53,0.00,,,0.00,Rainwise IP-100,2013-03-31 22:05:00,
2013-03-31 18:10:00,43.1,28.0,30.04,SE,135,4.2,11.7,55,0.00,,,0.00,Rainwise IP-100,2013-03-31 22:10:00,
2013-03-31 18:15:00,43.0,29.0,30.04,East,90,6.8,8.6,57,0.00,,,0.00,Rainwise IP-100,2013-03-31 22:15:00,
2013-03-31 18:20:00,42.4,29.0,30.04,SE,135,4.0,11.0,61,0.00,,,0.00,Rainwise IP-100,2013-03-31 22:20:00,
2013-03-31 18:25:00,41.5,32.0,30.04,ESE,112,3.7,11.7,67,0.00,,,0.00,Rainwise IP-100,2013-03-31 22:25:00,
2013-03-31 18:30:00,41.0,32.0,30.03,SE,135,6.5,9.8,71,0.00,,,0.00,Rainwise IP-100,2013-03-31 22:30:00,
2013-03-31 18:35:00,40.9,33.0,30.03,SSE,157,4.0,7.7,73,0.00,,,0.00,Rainwise IP-100,2013-03-31 22:35:00,
2013-03-31 18:40:00,40.9,33.0,30.03,SE,135,4.4,7.5,73,0.00,,,0.00,Rainwise IP-100,2013-03-31 22:40:00,
2013-03-31 18:45:00,41.0,32.0,30.02,SE,135,3.5,7.2,71,0.00,,,0.00,Rainwise IP-100,2013-03-31 22:45:00,
2013-03-31 18:50:00,41.5,32.0,30.03,South,180,11.9,11.9,67,0.00,,,0.00,Rainwise IP-100,2013-03-31 22:50:00,
2013-03-31 18:55:00,41.9,32.0,30.03,South,180,7.0,11.9,65,0.00,,,0.00,Rainwise IP-100,2013-03-31 22:55:00,
2013-03-31 19:00:00,41.9,32.0,30.02,South,180,8.4,11.0,65,0.00,,,0.00,Rainwise IP-100,2013-03-31 23:00:00,
2013-03-31 19:05:00,41.9,32.0,30.02,South,180,4.4,11.0,66,0.00,,,0.00,Rainwise IP-100,2013-03-31 23:05:00,
2013-03-31 19:10:00,41.8,32.0,30.02,SSW,202,4.7,10.3,67,0.00,,,0.00,Rainwise IP-100,2013-03-31 23:10:00,
2013-03-31 19:15:00,41.8,32.0,30.02,South,180,4.7,11.2,68,0.00,,,0.00,Rainwise IP-100,2013-03-31 23:15:00,
2013-03-31 19:20:00,41.7,33.0,30.02,SSW,202,3.0,12.1,69,0.00,,,0.00,Rainwise IP-100,2013-03-31 23:20:00,
2013-03-31 19:25:00,41.7,33.0,30.02,SW,225,7.2,11.9,70,0.00,,,0.00,Rainwise IP-100,2013-03-31 23:25:00,
2013-03-31 19:30:00,41.7,33.0,30.02,SSW,202,2.6,12.4,71,0.00,,,0.00,Rainwise IP-100,2013-03-31 23:30:00,
2013-03-31 19:35:00,41.7,33.0,30.02,SSE,157,9.3,10.3,72,0.00,,,0.00,Rainwise IP-100,2013-03-31 23:35:00,
2013-03-31 19:40:00,41.8,33.0,30.02,SSW,202,7.0,12.6,72,0.00,,,0.00,Rainwise IP-100,2013-03-31 23:40:00,
2013-03-31 19:45:00,41.9,35.0,30.01,South,180,5.8,13.3,73,0.00,,,0.00,Rainwise IP-100,2013-03-31 23:45:00,
2013-03-31 19:50:00,41.8,35.0,30.01,SW,225,2.8,12.6,74,0.00,,,0.00,Rainwise IP-100,2013-03-31 23:50:00,
2013-03-31 19:55:00,41.8,35.0,30.02,South,180,6.3,12.6,75,0.00,,,0.00,Rainwise IP-100,2013-03-31 23:55:00,
2013-03-31 20:00:00,41.8,35.0,30.02,South,180,3.7,11.0,75,0.00,,,0.00,Rainwise IP-100,2013-04-01 00:00:00,
2013-03-31 20:05:00,41.7,36.0,30.02,SSE,157,7.5,12.4,76,0.00,,,0.00,Rainwise IP-100,2013-04-01 00:05:00,
2013-03-31 20:10:00,41.6,36.0,30.02,SSE,157,5.1,12.6,77,0.00,,,0.00,Rainwise IP-100,2013-04-01 00:10:00,
2013-03-31 20:15:00,41.5,36.0,30.02,South,180,14.0,14.0,78,0.00,,,0.00,Rainwise IP-100,2013-04-01 00:15:00,
2013-03-31 20:20:00,41.5,36.0,30.02,South,180,5.6,14.7,79,0.00,,,0.00,Rainwise IP-100,2013-04-01 00:20:00,
2013-03-31 20:25:00,41.5,37.0,30.02,SSW,202,5.1,12.1,80,0.00,,,0.00,Rainwise IP-100,2013-04-01 00:25:00,
2013-03-31 20:30:00,41.5,37.0,30.02,South,180,6.1,11.4,81,0.00,,,0.00,Rainwise IP-100,2013-04-01 00:30:00,
2013-03-31 20:35:00,41.5,37.0,30.01,SE,135,6.1,11.4,82,0.00,,,0.00,Rainwise IP-100,2013-04-01 00:35:00,
2013-03-31 20:40:00,41.4,36.0,30.02,South,180,7.0,11.2,82,0.00,,,0.00,Rainwise IP-100,2013-04-01 00:40:00,
2013-03-31 20:45:00,41.4,37.0,30.01,SE,135,5.6,12.1,83,0.00,,,0.00,Rainwise IP-100,2013-04-01 00:45:00,
2013-03-31 20:50:00,41.5,37.0,30.01,SSE,157,10.0,11.9,83,0.00,,,0.00,Rainwise IP-100,2013-04-01 00:50:00,
2013-03-31 20:55:00,41.5,37.0,30.01,SSE,157,8.4,12.6,83,0.00,,,0.00,Rainwise IP-100,2013-04-01 00:55:00,
2013-03-31 21:00:00,41.5,38.0,30.01,SSE,157,5.4,12.1,84,0.00,,,0.00,Rainwise IP-100,2013-04-01 01:00:00,
2013-03-31 21:05:00,41.5,38.0,30.01,WSW,247,9.1,13.1,84,0.00,,,0.00,Rainwise IP-100,2013-04-01 01:05:00,
2013-03-31 21:10:00,41.5,38.0,30.01,South,180,6.3,9.1,84,0.00,,,0.00,Rainwise IP-100,2013-04-01 01:10:00,
2013-03-31 21:15:00,41.5,38.0,30.01,South,180,7.0,11.0,85,0.00,,,0.00,Rainwise IP-100,2013-04-01 01:15:00,
2013-03-31 21:20:00,41.3,37.0,30.00,South,180,4.7,9.6,86,0.00,,,0.00,Rainwise IP-100,2013-04-01 01:20:00,
2013-03-31 21:25:00,41.3,37.0,30.00,SSW,202,1.4,10.3,86,0.00,,,0.00,Rainwise IP-100,2013-04-01 01:25:00,
2013-03-31 21:30:00,41.3,38.0,30.00,SSE,157,2.8,12.1,87,0.00,,,0.00,Rainwise IP-100,2013-04-01 01:30:00,
2013-03-31 21:35:00,41.2,38.0,30.00,SSE,157,5.8,9.3,87,0.00,,,0.00,Rainwise IP-100,2013-04-01 01:35:00,
2013-03-31 21:40:00,41.1,38.0,29.99,SSE,157,6.5,8.6,87,0.00,,,0.00,Rainwise IP-100,2013-04-01 01:40:00,
2013-03-31 21:45:00,41.1,38.0,29.99,South,180,2.6,11.7,88,0.00,,,0.00,Rainwise IP-100,2013-04-01 01:45:00,
2013-03-31 21:50:00,41.1,38.0,29.99,South,180,4.0,10.7,88,0.00,,,0.00,Rainwise IP-100,2013-04-01 01:50:00,
2013-03-31 21:55:00,41.2,38.0,29.99,SSW,202,3.0,9.3,89,0.00,,,0.00,Rainwise IP-100,2013-04-01 01:55:00,
2013-03-31 22:00:00,41.2,38.0,29.99,SSE,157,4.7,11.9,89,0.00,,,0.00,Rainwise IP-100,2013-04-01 02:00:00,
2013-03-31 22:05:00,41.1,38.0,29.98,SE,135,8.2,10.7,89,0.00,,,0.00,Rainwise IP-100,2013-04-01 02:05:00,
2013-03-31 22:10:00,41.1,38.0,29.98,South,180,4.4,8.9,90,0.00,,,0.00,Rainwise IP-100,2013-04-01 02:10:00,
2013-03-31 22:15:00,41.0,38.0,29.98,SSW,202,3.3,7.9,90,0.00,,,0.00,Rainwise IP-100,2013-04-01 02:15:00,
2013-03-31 22:20:00,41.0,38.0,29.97,South,180,5.1,11.0,90,0.00,,,0.00,Rainwise IP-100,2013-04-01 02:20:00,
2013-03-31 22:25:00,41.0,38.0,29.97,SW,225,6.1,10.0,90,0.00,,,0.00,Rainwise IP-100,2013-04-01 02:25:00,
2013-03-31 22:30:00,41.1,38.0,29.97,South,180,11.4,13.5,90,0.00,,,0.00,Rainwise IP-100,2013-04-01 02:30:00,
2013-03-31 22:35:00,41.1,38.0,29.97,South,180,1.6,11.4,90,0.00,,,0.00,Rainwise IP-100,2013-04-01 02:35:00,
2013-03-31 22:40:00,41.1,38.0,29.97,SE,135,3.0,7.5,90,0.00,,,0.00,Rainwise IP-100,2013-04-01 02:40:00,
2013-03-31 22:45:00,41.1,38.0,29.97,SSW,202,3.3,7.7,89,0.00,,,0.00,Rainwise IP-100,2013-04-01 02:45:00,
2013-03-31 22:50:00,41.3,38.0,29.96,ESE,112,0.0,7.2,88,0.00,,,0.00,Rainwise IP-100,2013-04-01 02:50:00,
2013-03-31 22:55:00,41.5,39.0,29.97,South,180,2.6,6.8,88,0.00,,,0.00,Rainwise IP-100,2013-04-01 02:55:00,
2013-03-31 23:00:00,41.7,38.0,29.96,South,180,2.3,5.4,86,0.00,,,0.00,Rainwise IP-100,2013-04-01 03:00:00,
2013-03-31 23:05:00,41.9,38.0,29.96,SSE,157,3.0,11.4,85,0.00,,,0.00,Rainwise IP-100,2013-04-01 03:05:00,
2013-03-31 23:10:00,42.6,38.0,29.95,South,180,6.8,13.1,82,0.00,,,0.00,Rainwise IP-100,2013-04-01 03:10:00,
2013-03-31 23:15:00,43.4,37.0,29.95,SW,225,11.7,14.0,80,0.00,,,0.00,Rainwise IP-100,2013-04-01 03:15:00,
2013-03-31 23:20:00,43.9,38.0,29.95,South,180,11.9,12.8,79,0.00,,,0.00,Rainwise IP-100,2013-04-01 03:20:00,
2013-03-31 23:25:00,44.4,37.0,29.94,SSE,157,2.8,12.6,77,0.00,,,0.00,Rainwise IP-100,2013-04-01 03:25:00,
2013-03-31 23:30:00,44.8,38.0,29.94,SW,225,3.7,17.7,75,0.00,,,0.00,Rainwise IP-100,2013-04-01 03:30:00,
2013-03-31 23:35:00,44.9,37.0,29.94,SSE,157,4.9,19.4,74,0.00,,,0.00,Rainwise IP-100,2013-04-01 03:35:00,
2013-03-31 23:40:00,44.7,37.0,29.93,SE,135,2.8,12.4,74,0.00,,,0.00,Rainwise IP-100,2013-04-01 03:40:00,
2013-03-31 23:45:00,44.1,37.0,29.93,SSW,202,5.1,8.2,76,0.00,,,0.00,Rainwise IP-100,2013-04-01 03:45:00,
2013-03-31 23:50:00,43.6,37.0,29.93,SE,135,4.2,10.0,76,0.00,,,0.00,Rainwise IP-100,2013-04-01 03:50:00,
2013-03-31 23:55:00,43.4,37.0,29.92,SE,135,7.9,11.7,77,0.00,,,0.00,Rainwise IP-100,2013-04-01 03:55:00,